Weather Roundup
Issued by NWS Corpus Christi, TX

Home | Current Version | Previous Version | Text Only | Print | Product List | Glossary On
Versions: 1 2 3 4 5 6 7 8 9 10 11 12 13 14 15 16 17 18 19 20 21 22 23 24 25 26 27 28 29 30 31 32 33 34 35 36 37 38 39 40 41 42 43 44 45 46 47 48 49 50
000
ASUS44 KCRP 120410
HRRCRP

SOUTH TEXAS REGIONAL WEATHER ROUNDUP
NATIONAL WEATHER SERVICE CORPUS CHRISTI TX
1100 PM CDT TUE AUG 11 2020


TXZ229>244-120500-
...CORPUS CHRISTI AREA OBSERVATIONS...

CITY           SKY/WX    TMP DP  RH WIND       PRES   REMARKS
CORPUS CHRISTI PTCLDY    82  78  88 SE9       29.95R HX  91
NAS CORPUS CHR PTCLDY    84  78  82 S13       29.95R HX  95
ROCKPORT       NOT AVBL
KINGSVILLE NAS PTCLDY    83  76  79 SE12      29.94R HX  91
ALICE          CLEAR     82  75  79 SE10      29.94R
$$

...VICTORIA AREA OBSERVATIONS...

CITY           SKY/WX    TMP DP  RH WIND       PRES   REMARKS
PORT LAVACA    NOT AVBL
VICTORIA       CLEAR     81  76  84 S7        29.96R
BEEVILLE       FAIR      82  79  90 SE7       29.95R HX  93
PLEASANTON     CLEAR     86  74  67 SE12      29.94R HX  95
SAN ANTONIO    PTCLDY    86  73  65 S16       29.95R HX  93
$$

...LAREDO AREA OBSERVATIONS...

CITY           SKY/WX    TMP DP  RH WIND       PRES   REMARKS
LAREDO         CLEAR     88  68  51 SE16      29.92R HX  91
COTULLA        CLEAR     88  74  63 SE15      29.92R HX  96
DEL RIO        CLEAR     94  63  35 SE9       29.87R HX  95
MCALLEN        CLEAR     83  75  77 SE10      29.95R HX  90
HEBBRONVILLE   CLEAR     82  67  61 S9        29.96R
$$

...OTHER TEXAS OBSERVATIONS...

CITY           SKY/WX    TMP DP  RH WIND       PRES   REMARKS
BROWNSVILLE    CLEAR     83  77  82 SE8       29.95R HX  92
HOUSTON        PTCLDY    85  76  74 S6        29.97R HX  94
COL. STATION   CLEAR     86  75  69 S16       29.95R HX  95
AUSTIN         CLEAR     87  73  62 S14       29.93R HX  94
TEMPLE         CLEAR     89  73  59 SE17      29.94R HX  97
WACO           CLEAR     91  70  49 SE15G23   29.91R HX  96
FORT WORTH     PTCLDY    90  70  51 SE10      29.88R HX  95
WICHITA FALLS  CLEAR     84  68  58 SE8       29.87R
LUBBOCK        MOCLDY    82  57  42 NW12      30.00R
EL PASO        MOCLDY    95  44  17 SE7       29.96R HX  91
$$

...MARINE OBSERVATIONS...

STATION/POSITION TIME  SKY/WX   TEMP    WIND        PRES    VSBY  WAVE   SWELL
                                AIR SEA DIR/SP/G                  HT/PER HT/PER
                 (UTC)          (F)     (DEG/KT/KT) (MB)    (MI)  (FT/S) (FT/S)
PORT ARANSAS     0400            85 88  150/ 19/ 21 1014.1R
BUOY 90 E PORT A 0350               86  170/ 12/ 16 1014.8R         2/ 6   2/ 6
BUOY 45 SE BAFFI 0340                                 N/A           3/ 6
BUOY 200 E PT IS 0400            85 87              1016.3
BUOY 15 E GALVES 0350            86 87  180/ 12/ 14 1014.9R         2/ 5
$$




USA.gov is the U.S. government's official web portal to all federal, state and local government web resources and services.